Weather History for Big Delta, AK

Change the Weather History Date:

Monday, May 26, 2014

  Actual Average Record
Temperature  
Mean Temperature 54 °F -  
Max Temperature 66 °F 59 °F 78 °F (2002)
Min Temperature 42 °F 39 °F 36 °F (2000)
Degree Days  
Heating Degree Days 11    
Growing Degree Days 4 (Base 50)    
Moisture  
Dew Point 32 °F    
Average Humidity 47    
Maximum Humidity 89    
Minimum Humidity 12    
Precipitation  
Precipitation 0.00 in - - ()
Sea Level Pressure  
Sea Level Pressure 29.96 in    
Wind  
Wind Speed 5 mph (SSE)    
Max Wind Speed 13 mph    
Max Gust Speed 25 mph    
Visibility 10 miles    
Events Rain    
Averages and records for this station are not official NWS values.
T = Trace of Precipitation, MM = Missing Value Source: NWS Daily Summary

Daily Weather History Graph

Daily Weather History Graph

Search for Another Location

Airport:

Trip Planner

Search our weather history database for the weather conditions in past years. The results will help you decide how hot, cold, wet, or windy it might be!

Date:

Astronomy

May. 26, 2014 Rise Set
Actual Time 3:55 AM AKDT 11:26 PM AKDT
Civil Twilight 2:12 AM AKDT 1:07 AM AKDT
Nautical Twilight Sun does not rise Sun does not rise
Astronomical Twilight Sun does not rise Sun does not rise
Moon 3:55 AM AKDT (5/26) 8:39 PM AKDT (5/26)
Length of Visible Light 22h 55m
Length of Day
19h 30m
Waning Crescent, 4% of the Moon is Illuminated
May 26
Waning Crescent
May 28
New
Jun 5
First Quarter
Jun 12
Full
Jun 19
Last Quarter

Hourly Weather History & Observations

Time (AKDT) Temp. Windchill Dew Point Humidity Pressure Visibility Wind Dir Wind Speed Gust Speed Precip Events Conditions
12:53 AM 45.0 °F 43.5 °F 37.9 °F 76% 29.97 in 10.0 mi East 3.5 mph - N/A   Clear
1:53 AM 44.1 °F - 37.9 °F 79% 29.98 in 10.0 mi Calm Calm - N/A   Overcast
2:53 AM 44.1 °F 42.5 °F 39.0 °F 82% 29.99 in 10.0 mi SE 3.5 mph - N/A   Overcast
3:53 AM 44.1 °F 42.5 °F 39.0 °F 82% 30.01 in 10.0 mi SSE 3.5 mph - 0.00 in Rain Light Rain
4:53 AM 43.0 °F 41.3 °F 39.9 °F 89% 30.02 in 10.0 mi ESE 3.5 mph - 0.00 in   Overcast
5:53 AM 43.0 °F 38.2 °F 39.0 °F 86% 30.02 in 10.0 mi South 8.1 mph - 0.00 in Rain Light Rain
6:53 AM 45.0 °F 43.5 °F 39.0 °F 80% 30.03 in 10.0 mi SSE 3.5 mph - 0.00 in   Mostly Cloudy
7:53 AM 48.0 °F - 37.9 °F 68% 30.02 in 10.0 mi SE 5.8 mph - N/A   Mostly Cloudy
8:53 AM 52.0 °F - 37.0 °F 57% 30.01 in 10.0 mi East 9.2 mph - N/A   Scattered Clouds
9:53 AM 54.0 °F - 35.1 °F 49% 30.01 in 10.0 mi East 10.4 mph - N/A   Scattered Clouds
10:53 AM 55.0 °F - 35.1 °F 47% 30.01 in 10.0 mi ESE 11.5 mph - N/A   Scattered Clouds
11:53 AM 57.9 °F - 33.1 °F 39% 29.99 in 10.0 mi Variable 3.5 mph - N/A   Scattered Clouds
12:53 PM 60.1 °F - 32.0 °F 35% 29.99 in 10.0 mi East 5.8 mph - N/A   Scattered Clouds
1:53 PM 61.0 °F - 32.0 °F 34% 29.97 in 10.0 mi South 5.8 mph - N/A   Scattered Clouds
2:53 PM 62.1 °F - 30.9 °F 31% 29.95 in 10.0 mi Calm Calm - N/A   Scattered Clouds
3:53 PM 64.0 °F - 24.1 °F 22% 29.94 in 10.0 mi South 11.5 mph 20.7 mph N/A   Mostly Cloudy
4:53 PM 64.0 °F - 24.1 °F 22% 29.93 in 10.0 mi South 12.7 mph 18.4 mph N/A   Scattered Clouds
5:53 PM 64.9 °F - 23.0 °F 20% 29.91 in 10.0 mi South 12.7 mph 25.3 mph N/A   Mostly Cloudy
6:53 PM 64.9 °F - 24.1 °F 21% 29.91 in 10.0 mi South 11.5 mph 23.0 mph N/A   Mostly Cloudy
7:53 PM 64.0 °F - 24.1 °F 22% 29.90 in 10.0 mi SSW 6.9 mph - N/A   Mostly Cloudy
8:53 PM 63.0 °F - 27.0 °F 26% 29.88 in 10.0 mi South 6.9 mph - N/A   Mostly Cloudy
9:53 PM 59.0 °F - 28.9 °F 32% 29.88 in 10.0 mi Calm Calm - N/A   Clear
10:53 PM 57.9 °F - 30.0 °F 35% 29.88 in 10.0 mi SSW 4.6 mph - N/A   Clear
11:53 PM 54.0 °F - 30.9 °F 41% 29.89 in 10.0 mi SSW 4.6 mph - N/A   Clear